[[{"header":{"parameterUnit":"m.s-1","parameterCategory":1,"la1":30.2992,"la2":30.254,"lo1":-89.0895,"lo2":-89.0443,"dy":0.0025,"dx":0.0025,"nx":19,"ny":19,"refTime":"2026-03-20T03:00:00:Z","depth":0,"parameterNumber":2,"parameterNumberName":"U-component_of_WINDS"},"data":[0,0,0,2.4659,2.4661,2.4767,2.4767,2.49,2.4901,0,0,0,0,0,0,0,0,0,0,0,2.4624,2.4625,2.4659,2.4661,2.4767,2.4767,2.49,2.4901,0,0,0,0,0,0,0,0,0,0,0,2.4624,2.4625,2.4626,2.4662,2.4767,2.4767,2.49,2.4822,0,0,0,0,0,0,0,0,0,0,2.472,2.4683,2.4624,2.4626,2.4662,2.4767,2.4767,2.4818,2.4826,2.4851,0,2.4869,0,2.4887,2.491,2.491,0,0,0,2.4665,2.4676,2.4707,2.4626,2.4663,2.4766,2.472,2.4823,2.4832,2.4862,2.4871,2.4876,2.4889,2.4911,2.4911,2.5035,2.5035,0,0,2.4659,2.4642,2.4701,2.4713,2.4694,2.4717,2.4723,2.4829,2.4838,2.4872,2.488,2.4892,2.4912,2.4913,2.5034,2.5035,0,0,0,2.464,2.4637,2.4667,2.4708,2.4727,2.472,2.4727,2.4834,2.4844,2.4881,2.4893,2.4912,2.4914,2.5034,2.5034,2.5036,0,0,0,2.4637,2.4626,2.4664,2.4654,2.4725,2.4781,2.473,2.4837,2.485,2.4893,2.4912,2.4915,2.5033,2.5034,2.5035,2.504,0,0,0,2.4619,2.4624,2.4638,2.4653,2.4698,2.478,2.4797,2.484,2.4857,2.4911,2.4916,2.5033,2.5034,2.5034,2.5039,2.5067,0,0,0,2.4595,2.464,2.4638,2.4693,2.4696,2.4779,2.4796,2.486,2.4906,2.4913,2.5033,2.5034,2.5034,2.5038,2.5066,2.5086,2.5093,0,0,2.4642,2.4645,2.4679,2.468,2.4758,2.4765,2.4845,2.4905,2.4928,2.4998,2.5002,2.5035,2.5039,2.5066,2.514,2.5145,0,0,0,2.4688,2.4711,2.4736,2.4778,2.4824,2.4864,2.4913,2.4935,2.4996,2.4959,2.5054,2.5057,2.5074,2.5084,2.5089,2.5105,2.5039,2.5038,2.5038,2.4729,2.4753,2.4811,2.4848,2.4889,2.4939,2.4975,2.5014,2.5029,2.5051,2.5072,2.5113,2.5125,2.5128,2.5144,2.5085,2.5085,2.5085,2.5085,2.4799,2.4837,2.4854,2.4915,2.4942,2.4995,2.5046,2.5054,2.5109,2.5099,2.5116,2.5103,2.5133,2.5149,2.5086,2.5086,2.5086,2.5086,2.5086,2.4828,2.485,2.4876,2.4939,2.4985,2.5023,2.5073,2.5097,2.5119,2.5135,2.516,2.516,2.5162,2.5146,2.5146,2.5146,2.5146,2.5146,2.5146,2.4848,2.4876,2.4915,2.4967,2.4997,2.504,2.5091,2.5122,2.5162,2.5175,2.5176,2.5188,2.5132,2.5117,2.5148,2.5148,2.5148,2.5148,2.5147,2.4909,2.4899,2.4958,2.4988,2.5051,2.5096,2.5125,2.5186,2.5215,2.524,2.5249,2.5203,2.5209,2.5205,2.5193,2.5243,2.5243,2.5243,2.5243,2.4932,2.4937,2.5003,2.5049,2.5098,2.513,2.5198,2.5239,2.528,2.53,2.5297,2.5283,2.5278,2.5286,2.5281,2.527,2.5338,2.5338,2.5338,2.4971,2.4981,2.5034,2.5072,2.5123,2.5167,2.5232,2.5286,2.5331,2.5343,2.5316,2.5312,2.529,2.5281,2.5291,2.5282,2.5262,0,0]},{"header":{"parameterUnit":"m.s-1","parameterCategory":1,"la1":30.2992,"la2":30.254,"lo1":-89.0895,"lo2":-89.0443,"dy":0.0025,"dx":0.0025,"nx":19,"ny":19,"refTime":"2026-03-20T03:00:00:Z","depth":0,"parameterNumber":3,"parameterNumberName":"V-component_of_WINDS"},"data":[0,0,0,2.9947,2.9948,2.9983,2.9983,3.0019,3.002,0,0,0,0,0,0,0,0,0,0,0,2.9934,2.9934,2.9947,2.9948,2.9983,2.9983,3.0019,3.002,0,0,0,0,0,0,0,0,0,0,0,2.9933,2.9934,2.9934,2.9948,2.9983,2.9983,3.0019,2.9995,0,0,0,0,0,0,0,0,0,0,2.9963,2.9948,2.9934,2.9934,2.9948,2.9983,2.9983,2.9994,2.9997,3.0,0,3.0004,0,3.0013,3.0022,3.0022,0,0,0,2.995,2.9945,2.9958,2.9934,2.9948,2.9983,2.9968,2.9996,2.9999,3.0004,3.0005,3.0007,3.0013,3.0022,3.0022,3.0039,3.0039,0,0,2.9948,2.9938,2.9956,2.996,2.9956,2.9966,2.9969,2.9998,2.9998,3.0005,3.0007,3.0014,3.0022,3.0022,3.004,3.0039,0,0,0,2.9941,2.9936,2.9948,2.9958,2.9965,2.9967,2.997,2.9996,3.0001,3.0008,3.0014,3.0022,3.0023,3.004,3.004,3.003,0,0,0,2.994,2.9932,2.9947,2.9941,2.9964,2.9982,2.9968,2.9999,3.0003,3.0014,3.0022,3.0023,3.004,3.004,3.003,3.0026,0,0,0,2.9932,2.9932,2.9936,2.9941,2.9956,2.9981,2.9988,3.0,3.0007,3.0022,3.0023,3.004,3.004,3.003,3.0027,3.0028,0,0,0,2.9921,2.9926,2.9935,2.9943,2.9955,2.9975,2.9988,3.0003,3.0015,3.0022,3.004,3.004,3.003,3.0027,3.0028,3.0026,3.0025,0,0,2.9922,2.9926,2.9931,2.9941,2.9957,2.9971,2.9985,3.0005,3.0014,3.003,3.0031,3.003,3.0027,3.0028,3.0021,3.002,0,0,0,2.9928,2.9932,2.9938,2.995,2.9966,2.9978,2.9997,3.0004,3.0018,3.0021,3.0031,3.0029,3.003,3.003,3.0029,3.003,3.0039,3.0039,3.0039,2.9915,2.9928,2.9938,2.9954,2.9965,2.9984,2.9993,3.0005,3.0015,3.0017,3.0022,3.0016,3.0016,3.0015,3.0016,3.0022,3.0022,3.0022,3.0022,2.9918,2.9925,2.9937,2.9951,2.9963,2.9974,2.9992,2.9998,3.0009,3.0014,3.0015,3.002,3.0013,3.0014,3.0022,3.0022,3.0022,3.0022,3.0022,2.991,2.9916,2.9925,2.9942,2.9953,2.9969,2.9978,2.999,3.0,3.0001,3.0007,3.0007,3.0008,3.0003,3.0003,3.0003,3.0003,3.0003,3.0003,2.9899,2.991,2.9918,2.9934,2.9942,2.9953,2.9971,2.9979,2.999,2.9997,2.9997,3.0005,3.0011,3.0011,3.0003,3.0003,3.0003,3.0003,3.0003,2.9897,2.9899,2.9911,2.9919,2.9938,2.9947,2.9961,2.9975,2.9983,2.9987,2.9995,2.9997,3.0001,3.0002,3.0003,2.9993,2.9993,2.9993,2.9993,2.989,2.9894,2.9908,2.9919,2.9932,2.9945,2.9956,2.9969,2.9983,2.9988,2.9991,2.9993,2.9993,2.9997,2.9998,2.9999,2.9988,2.9988,2.9988,2.9889,2.9894,2.9902,2.9916,2.9931,2.9944,2.9954,2.9965,2.9981,2.9988,2.9992,2.9992,2.9995,2.9996,3.0003,3.0004,3.0006,0,0]}]]